Regional Weather Roundup
Issued by NWS

Home | Current Version | Previous Version | Text Only | Print | Product List | Glossary On
Versions: 1 2 3 4 5 6 7 8 9 10 11 12 13 14 15 16 17 18 19 20 21 22 23 24 25 26 27 28 29 30 31 32 33 34 35 36 37 38 39 40 41 42 43 44 45 46 47 48 49 50
000
ASUS43 KLMK 301910
RWRKY
KENTUCKY REGIONAL WEATHER ROUNDUP
NATIONAL WEATHER SERVICE LOUISVILLE KY
300 PM EDT SUN AUG 30 2015

NOTE "FAIR" INDICATES FEW OR NO CLOUDS BELOW 12,000 FEET
WITH NO SIGNIFICANT WEATHER AND/OR OBSTRUCTIONS TO VISIBILITY.

KYZ001>023-026-027-061>063-070>075-302000-
WESTERN AND SOUTH CENTRAL KENTUCKY

CITY           SKY/WX    TMP DP  RH WIND       PRES   REMARKS
PADUCAH        PTSUNNY   83  72  69 SE3       30.06F
HENDERSON      PTSUNNY   82  70  65 S6        30.05F
OWENSBORO      MOSUNNY   85  70  60 S9        30.08F
HOPKINSVILLE   MOSUNNY   83  67  56 S7        30.07F
BOWLING GREEN  PTSUNNY   85  65  51 S14       30.10F
GLASGOW        MOSUNNY   84  65  51 S8        30.11F
$$

KYZ024-025-028>034-038-045-046-053-302000-
NORTH CENTRAL KENTUCKY

CITY           SKY/WX    TMP DP  RH WIND       PRES   REMARKS
LOUISVILLE/SDF CLOUDY    82  67  60 SW5       30.08F
LOUISVILLE/LOU PTSUNNY   82  67  60 SW7       30.09F
FORT KNOX      PTSUNNY   82  69  64 S7        30.08F
$$

KYZ035>037-039>044-047>052-055>060-089>105-302000-
NORTHEAST KENTUCKY

CITY           SKY/WX    TMP DP  RH WIND       PRES   REMARKS
LEXINGTON      PTSUNNY   85  66  53 S12       30.12F
COVINGTON      PTSUNNY   85  69  58 SW9       30.08F
FRANKFORT      PTSUNNY   83  65  54 W8        30.09F
$$

KYZ054-064>069-076>088-106>120-302000-
SOUTHEAST KENTUCKY

CITY           SKY/WX    TMP DP  RH WIND       PRES   REMARKS
JACKSON        CLOUDY    80  65  59 CALM      30.16F
LONDON         CLOUDY    81  60  48 W6        30.16F
SOMERSET       PTSUNNY   79  63  57 S3        30.15F
MIDDLESBORO    CLOUDY    77  67  69 CALM      30.17S
MONTICELLO     CLOUDY    80  66  62 SW6       30.17F
$$




USA.gov is the U.S. government's official web portal to all federal, state and local government web resources and services.